BOX450 EDDF-KJFK

Flight info

Callsign BOX450
Flight time N/A
Altitude 30000
Route OBOKA5G/25C OBOKA Z29 TORNU DCT VICOT DCT GALSO Q63 ERING L179 UGBET Q60 OKSAW DCT BIBPE DCT TIGWE DCT FELCA DCT FADZU DCT NICXI DCT OFSOX DCT SLANY DCT DIMUS DCT MALOT/M084F320 DCT 54N020W 54N030W 54N040W 53N050W DCT RIKAL/N0478F320 N572A TOPPS DCT ENE PARCH4
Aircraft B77L/H-BOEING777200LREQUIPMENTSDE1E3FGHIJ1J3J4J5M1P2RWXY/LB1D1

Departure

Time 2026-05-05 19:01
Airport Frankfurt Main Airport (EDDF)

Arrival

Time N/A
Airport John F. Kennedy International Airport (KJFK)
Time Latitude Longitude Altitude Speed Heading
2026-05-05 17:27 50.03812 8.53499 348 ft 0 kts 340°
2026-05-05 18:42 50.03801 8.53506 358 ft 4 kts 340°
2026-05-05 18:42 50.03775 8.53520 358 ft 4 kts 339°
2026-05-05 18:42 50.03753 8.53533 358 ft 4 kts 347°
2026-05-05 18:42 50.03728 8.53534 357 ft 4 kts 22°
2026-05-05 18:43 50.03709 8.53511 357 ft 4 kts 65°
2026-05-05 18:43 50.03701 8.53471 357 ft 4 kts 79°
2026-05-05 18:43 50.03697 8.53442 355 ft 0 kts 70°
2026-05-05 18:47 50.03700 8.53453 357 ft 5 kts 70°
2026-05-05 18:47 50.03706 8.53504 357 ft 4 kts 92°
2026-05-05 18:47 50.03698 8.53536 357 ft 3 kts 122°
2026-05-05 18:48 50.03675 8.53563 354 ft 6 kts 151°
2026-05-05 18:48 50.03615 8.53551 350 ft 12 kts 201°
2026-05-05 18:48 50.03530 8.53495 351 ft 13 kts 203°
2026-05-05 18:48 50.03477 8.53558 353 ft 13 kts 81°
2026-05-05 18:49 50.03507 8.53685 352 ft 13 kts 70°
2026-05-05 18:49 50.03537 8.53813 355 ft 13 kts 70°
2026-05-05 18:49 50.03567 8.53938 353 ft 13 kts 69°
2026-05-05 18:49 50.03598 8.54064 354 ft 13 kts 69°
2026-05-05 18:50 50.03628 8.54191 354 ft 13 kts 69°
2026-05-05 18:50 50.03659 8.54318 349 ft 13 kts 69°
2026-05-05 18:50 50.03692 8.54460 351 ft 15 kts 70°
2026-05-05 18:50 50.03729 8.54613 357 ft 15 kts 70°
2026-05-05 18:51 50.03765 8.54766 358 ft 15 kts 70°
2026-05-05 18:51 50.03802 8.54919 362 ft 15 kts 70°
2026-05-05 18:51 50.03838 8.55071 359 ft 15 kts 69°
2026-05-05 18:51 50.03875 8.55224 363 ft 15 kts 69°
2026-05-05 18:52 50.03912 8.55377 359 ft 15 kts 69°
2026-05-05 18:52 50.03948 8.55530 357 ft 15 kts 70°
2026-05-05 18:52 50.03978 8.55658 358 ft 0 kts 70°
2026-05-05 18:53 50.03976 8.55650 363 ft 4 kts 70°
2026-05-05 18:53 50.03936 8.55482 364 ft 3 kts 77°
2026-05-05 18:53 50.03938 8.55488 363 ft 0 kts 71°
2026-05-05 18:54 50.03938 8.55490 361 ft 1 kts 71°
2026-05-05 18:54 50.03960 8.55581 363 ft 19 kts 69°
2026-05-05 18:55 50.04023 8.55841 363 ft 27 kts 69°
2026-05-05 18:55 50.04088 8.56114 362 ft 27 kts 70°
2026-05-05 18:55 50.04152 8.56385 362 ft 27 kts 69°
2026-05-05 18:55 50.04217 8.56656 368 ft 27 kts 70°
2026-05-05 18:56 50.04273 8.56890 368 ft 22 kts 70°
2026-05-05 18:56 50.04328 8.57121 371 ft 22 kts 69°
2026-05-05 18:56 50.04383 8.57345 369 ft 22 kts 70°
2026-05-05 18:56 50.04436 8.57574 371 ft 22 kts 70°
2026-05-05 18:57 50.04490 8.57802 371 ft 22 kts 70°
2026-05-05 18:57 50.04545 8.58029 373 ft 22 kts 69°
2026-05-05 18:57 50.04600 8.58257 375 ft 22 kts 69°
2026-05-05 18:57 50.04636 8.58409 375 ft 7 kts 69°
2026-05-05 18:58 50.04638 8.58418 375 ft 0 kts 69°
2026-05-05 18:58 50.04639 8.58421 374 ft 2 kts 69°
2026-05-05 18:59 50.04656 8.58494 376 ft 10 kts 71°
2026-05-05 18:59 50.04624 8.58568 373 ft 9 kts 155°
2026-05-05 18:59 50.04567 8.58604 377 ft 9 kts 158°
2026-05-05 18:59 50.04508 8.58609 378 ft 9 kts 204°
2026-05-05 19:00 50.04475 8.58535 380 ft 11 kts 247°
2026-05-05 19:00 50.04412 8.58277 376 ft 49 kts 250°
2026-05-05 19:00 50.04196 8.57366 373 ft 129 kts 250°
2026-05-05 19:00 50.03787 8.55687 365 ft 198 kts 248°
2026-05-05 19:01 50.03284 8.53631 875 ft 207 kts 249°
2026-05-05 19:01 50.02795 8.51536 1729 ft 204 kts 256°
2026-05-05 19:01 50.02716 8.49335 2439 ft 209 kts 275°
2026-05-05 19:01 50.02893 8.46972 2648 ft 230 kts 275°
2026-05-05 19:02 50.03041 8.44448 3086 ft 238 kts 269°
2026-05-05 19:02 50.02836 8.41880 3552 ft 247 kts 258°
2026-05-05 19:02 50.02475 8.39218 4011 ft 256 kts 257°
2026-05-05 19:02 50.02112 8.36463 4012 ft 262 kts 258°
2026-05-05 19:03 50.01765 8.33693 4021 ft 261 kts 258°
2026-05-05 19:03 50.01426 8.30929 4139 ft 260 kts 258°
2026-05-05 19:03 50.01268 8.28154 4749 ft 260 kts 279°
2026-05-05 19:03 50.01914 8.25520 5342 ft 262 kts 294°
2026-05-05 19:04 50.02704 8.22940 5938 ft 266 kts 292°
2026-05-05 19:04 50.03462 8.20320 6617 ft 267 kts 292°
2026-05-05 19:04 50.04230 8.17671 7274 ft 268 kts 292°
2026-05-05 19:04 50.05001 8.15012 7889 ft 270 kts 292°
2026-05-05 19:05 50.05784 8.12344 8511 ft 272 kts 294°
2026-05-05 19:05 50.06820 8.09838 9040 ft 279 kts 305°
2026-05-05 19:05 50.08054 8.07472 9661 ft 282 kts 307°
2026-05-05 19:05 50.09319 8.05128 10238 ft 284 kts 307°
2026-05-05 19:06 50.10607 8.02719 10565 ft 298 kts 307°
2026-05-05 19:06 50.11964 8.00140 10712 ft 317 kts 306°
2026-05-05 19:06 50.13397 7.97393 10859 ft 337 kts 306°
2026-05-05 19:06 50.14910 7.94469 11018 ft 356 kts 306°
2026-05-05 19:07 50.16472 7.91437 11313 ft 370 kts 307°
2026-05-05 19:07 50.18098 7.88272 11851 ft 377 kts 306°
2026-05-05 19:07 50.19743 7.85062 12510 ft 380 kts 306°
2026-05-05 19:07 50.21399 7.81824 13223 ft 383 kts 306°
2026-05-05 19:08 50.23088 7.78516 13872 ft 386 kts 307°
2026-05-05 19:08 50.24888 7.75452 14354 ft 393 kts 316°
2026-05-05 19:08 50.27088 7.72865 14880 ft 399 kts 326°
2026-05-05 19:08 50.29568 7.70836 15479 ft 404 kts 335°
2026-05-05 19:09 50.32180 7.69158 16034 ft 408 kts 335°
2026-05-05 19:09 50.34807 7.67419 16611 ft 412 kts 335°
2026-05-05 19:09 50.37449 7.65623 17149 ft 416 kts 335°
2026-05-05 19:09 50.40111 7.63792 17686 ft 420 kts 335°
2026-05-05 19:10 50.42802 7.61937 18177 ft 425 kts 335°
2026-05-05 19:10 50.45529 7.60057 18625 ft 429 kts 335°
2026-05-05 19:10 50.48266 7.58170 19105 ft 432 kts 335°
2026-05-05 19:10 50.51033 7.56261 19583 ft 435 kts 335°
2026-05-05 19:11 50.53816 7.54339 20041 ft 439 kts 335°
2026-05-05 19:11 50.56550 7.52170 20464 ft 441 kts 326°
2026-05-05 19:11 50.58938 7.49136 20860 ft 444 kts 313°
2026-05-05 19:11 50.60887 7.45355 21316 ft 445 kts 301°
2026-05-05 19:12 50.62431 7.41145 21749 ft 446 kts 298°
2026-05-05 19:12 50.63946 7.36870 22156 ft 450 kts 298°
2026-05-05 19:12 50.65488 7.32554 22551 ft 455 kts 298°
2026-05-05 19:12 50.67057 7.28187 22862 ft 461 kts 298°
2026-05-05 19:13 50.68651 7.23767 23294 ft 464 kts 298°
2026-05-05 19:13 50.70250 7.19347 23702 ft 466 kts 298°
2026-05-05 19:13 50.71865 7.14885 24096 ft 468 kts 298°
2026-05-05 19:13 50.73466 7.10461 24481 ft 470 kts 298°
2026-05-05 19:14 50.75091 7.05963 24846 ft 473 kts 298°
2026-05-05 19:14 50.76744 7.01380 25213 ft 475 kts 298°
2026-05-05 19:14 50.78382 6.96828 25630 ft 477 kts 298°
2026-05-05 19:14 50.80024 6.92260 25996 ft 479 kts 298°
2026-05-05 19:15 50.81673 6.87661 26330 ft 482 kts 298°
2026-05-05 19:15 50.83329 6.83035 26636 ft 485 kts 298°
2026-05-05 19:15 50.84994 6.78375 26972 ft 488 kts 298°
2026-05-05 19:15 50.86663 6.73695 27316 ft 490 kts 298°
2026-05-05 19:16 50.88319 6.69041 27639 ft 492 kts 298°
2026-05-05 19:16 50.90025 6.64241 27980 ft 495 kts 298°
2026-05-05 19:16 50.91691 6.59543 28303 ft 497 kts 298°
2026-05-05 19:16 50.93383 6.54763 28631 ft 499 kts 298°
2026-05-05 19:17 50.95081 6.49957 28942 ft 501 kts 298°
2026-05-05 19:17 50.96785 6.45125 29210 ft 503 kts 298°
2026-05-05 19:17 50.98492 6.40273 29554 ft 504 kts 298°
2026-05-05 19:17 51.00203 6.35404 29828 ft 506 kts 298°
2026-05-05 19:18 51.03662 6.25528 29840 ft 506 kts 298°
2026-05-05 19:18 51.07032 6.15870 29880 ft 501 kts 298°
2026-05-05 19:19 51.10410 6.06151 29859 ft 502 kts 297°
2026-05-05 19:19 51.13787 5.96398 29861 ft 503 kts 297°
2026-05-05 19:20 51.17143 5.86592 29861 ft 504 kts 295°
2026-05-05 19:20 51.19669 5.76211 29854 ft 502 kts 283°
2026-05-05 19:21 51.21481 5.65473 29859 ft 501 kts 283°
2026-05-05 19:21 51.23302 5.54738 29856 ft 500 kts 283°
2026-05-05 19:22 51.25142 5.44049 29865 ft 499 kts 283°
2026-05-05 19:22 51.26983 5.33369 29868 ft 498 kts 283°
2026-05-05 19:23 51.28810 5.22710 29881 ft 497 kts 283°
2026-05-05 19:23 51.30612 5.12119 29870 ft 496 kts 283°
2026-05-05 19:24 51.32409 5.01484 29873 ft 496 kts 283°
2026-05-05 19:24 51.34195 4.90856 29881 ft 495 kts 283°
2026-05-05 19:25 51.35972 4.80213 29881 ft 495 kts 283°
2026-05-05 19:25 51.37738 4.69565 29885 ft 495 kts 283°
2026-05-05 19:26 51.39496 4.58909 29880 ft 494 kts 283°
2026-05-05 19:26 51.41239 4.48272 29884 ft 493 kts 283°
2026-05-05 19:27 51.42960 4.37701 29885 ft 493 kts 282°
2026-05-05 19:27 51.44680 4.27070 29884 ft 493 kts 282°
2026-05-05 19:28 51.46393 4.16422 29884 ft 493 kts 282°
2026-05-05 19:28 51.48164 4.05790 29876 ft 494 kts 286°
2026-05-05 19:29 51.50841 3.95635 29879 ft 496 kts 294°
2026-05-05 19:29 51.53805 3.85650 29882 ft 495 kts 293°
2026-05-05 19:30 51.56719 3.75642 29891 ft 494 kts 292°
2026-05-05 19:30 51.59598 3.65603 29899 ft 493 kts 292°
2026-05-05 19:31 51.62460 3.55565 29894 ft 494 kts 292°
2026-05-05 19:31 51.65316 3.45516 29908 ft 493 kts 292°
2026-05-05 19:32 51.68060 3.35823 29920 ft 494 kts 292°
2026-05-05 19:32 51.70902 3.25747 29922 ft 493 kts 292°
2026-05-05 19:33 51.72077 3.20581 29904 ft 489 kts 281°
2026-05-05 19:33 51.72655 3.15198 29933 ft 485 kts 272°
2026-05-05 19:33 51.72492 3.06181 29926 ft 479 kts 258°
2026-05-05 19:34 51.71460 2.95557 29931 ft 480 kts 258°
2026-05-05 19:35 51.70035 2.79602 29932 ft 482 kts 259°
2026-05-05 19:35 51.69095 2.68888 29931 ft 483 kts 259°
2026-05-05 19:36 51.68137 2.58162 29926 ft 483 kts 258°
2026-05-05 19:36 51.67168 2.47462 29928 ft 482 kts 259°
2026-05-05 19:37 51.66169 2.36774 29944 ft 481 kts 259°
2026-05-05 19:37 51.65163 2.26149 29927 ft 479 kts 259°
2026-05-05 19:38 51.64165 2.15642 29934 ft 477 kts 259°
2026-05-05 19:38 51.63173 2.05071 29937 ft 476 kts 259°
2026-05-05 19:39 51.62228 1.94535 29935 ft 475 kts 259°
2026-05-05 19:39 51.61250 1.84011 29941 ft 476 kts 259°
2026-05-05 19:40 51.60260 1.73468 29943 ft 476 kts 259°
2026-05-05 19:40 51.59339 1.62969 29939 ft 478 kts 263°
2026-05-05 19:41 51.59401 1.52194 29951 ft 481 kts 272°
2026-05-05 19:41 51.59934 1.41534 29958 ft 482 kts 272°
2026-05-05 19:42 51.60395 1.30779 29947 ft 482 kts 272°
2026-05-05 19:42 51.60888 1.20028 29949 ft 482 kts 272°
2026-05-05 19:43 51.61415 1.09284 29950 ft 481 kts 272°
2026-05-05 19:43 51.61929 0.98543 29953 ft 481 kts 272°
2026-05-05 19:44 51.62424 0.87814 29971 ft 479 kts 272°
2026-05-05 19:44 51.62901 0.77160 29962 ft 476 kts 272°
2026-05-05 19:45 51.63365 0.66569 29960 ft 473 kts 271°
2026-05-05 19:45 51.63818 0.56025 29964 ft 471 kts 271°
2026-05-05 19:46 51.64259 0.45561 29968 ft 472 kts 272°
2026-05-05 19:46 51.64693 0.35000 29964 ft 473 kts 271°
2026-05-05 19:47 51.65119 0.24435 29963 ft 474 kts 271°
2026-05-05 19:47 51.65537 0.13831 29966 ft 475 kts 271°
2026-05-05 19:48 51.65946 0.03205 29962 ft 476 kts 271°
2026-05-05 19:48 51.66346 -0.07436 30019 ft 476 kts 271°
2026-05-05 19:49 51.66737 -0.18074 30015 ft 475 kts 271°
2026-05-05 19:49 51.67116 -0.28668 30024 ft 474 kts 271°
2026-05-05 19:50 51.67486 -0.39275 30020 ft 473 kts 271°
2026-05-05 19:50 51.67845 -0.49864 29940 ft 473 kts 271°
2026-05-05 19:51 51.68194 -0.60437 29945 ft 472 kts 271°
2026-05-05 19:51 51.68534 -0.71019 29950 ft 472 kts 271°
2026-05-05 19:52 51.68863 -0.81543 29931 ft 472 kts 271°
2026-05-05 19:52 51.69182 -0.92065 29946 ft 472 kts 270°
2026-05-05 19:53 51.69496 -1.02714 29979 ft 472 kts 270°
2026-05-05 19:53 51.69796 -1.13187 29959 ft 470 kts 270°
2026-05-05 19:54 51.70086 -1.23686 29958 ft 468 kts 270°
2026-05-05 19:54 51.70366 -1.34160 29972 ft 467 kts 270°
2026-05-05 19:55 51.70636 -1.44592 29967 ft 466 kts 270°
2026-05-05 19:55 51.70897 -1.55035 29968 ft 466 kts 270°
2026-05-05 19:56 51.71149 -1.65487 29974 ft 467 kts 270°
2026-05-05 19:56 51.71394 -1.75962 29973 ft 467 kts 270°
2026-05-05 19:57 51.71664 -1.86451 29970 ft 468 kts 273°
2026-05-05 19:57 51.72395 -1.96912 30012 ft 469 kts 275°
2026-05-05 19:58 51.73155 -2.07304 29995 ft 469 kts 275°
2026-05-05 19:58 51.73894 -2.17765 29998 ft 468 kts 274°
2026-05-05 19:59 51.74611 -2.28203 29997 ft 468 kts 274°
2026-05-05 19:59 51.75318 -2.38647 29999 ft 467 kts 274°
2026-05-05 20:00 51.76014 -2.49071 30005 ft 467 kts 275°
2026-05-05 20:00 51.76701 -2.59501 30008 ft 467 kts 274°
2026-05-05 20:01 51.77379 -2.69933 30011 ft 467 kts 274°
2026-05-05 20:01 51.78049 -2.80383 30014 ft 469 kts 275°
2026-05-05 20:02 51.78712 -2.90872 30051 ft 470 kts 275°
2026-05-05 20:02 51.79364 -3.01347 30051 ft 472 kts 276°
2026-05-05 20:03 51.80016 -3.11932 30047 ft 475 kts 276°
2026-05-05 20:03 51.80660 -3.22571 30033 ft 477 kts 276°
2026-05-05 20:04 51.81295 -3.33238 30025 ft 477 kts 276°
2026-05-05 20:04 51.81922 -3.43908 30005 ft 477 kts 277°
2026-05-05 20:05 51.82579 -3.54577 30012 ft 476 kts 279°
2026-05-05 20:05 51.83901 -3.65064 30015 ft 475 kts 283°
2026-05-05 20:06 51.85298 -3.75510 30012 ft 475 kts 283°
2026-05-05 20:06 51.86646 -3.85962 30012 ft 474 kts 282°
2026-05-05 20:07 51.87976 -3.96418 30023 ft 473 kts 282°
2026-05-05 20:07 51.89293 -4.06842 30012 ft 471 kts 282°
2026-05-05 20:08 51.90590 -4.17152 30014 ft 470 kts 282°
2026-05-05 20:08 51.91884 -4.27523 30020 ft 469 kts 282°
2026-05-05 20:09 51.93170 -4.37907 30025 ft 469 kts 282°
2026-05-05 20:09 51.94445 -4.48273 30020 ft 469 kts 281°
2026-05-05 20:10 51.95712 -4.58671 30028 ft 470 kts 281°
2026-05-05 20:10 51.96968 -4.69056 30025 ft 469 kts 281°
2026-05-05 20:11 51.98213 -4.79424 30027 ft 468 kts 281°
2026-05-05 20:11 51.99444 -4.89765 30039 ft 467 kts 280°
2026-05-05 20:12 52.00669 -5.00119 30031 ft 466 kts 280°
2026-05-05 20:12 52.01874 -5.10444 30036 ft 466 kts 280°
2026-05-05 20:13 52.03045 -5.20184 30028 ft 466 kts 283°
2026-05-05 20:13 52.05002 -5.30075 30038 ft 466 kts 288°
2026-05-05 20:14 52.07069 -5.40055 30048 ft 466 kts 288°
2026-05-05 20:14 52.09100 -5.50075 30045 ft 467 kts 287°
2026-05-05 20:15 52.11115 -5.60130 30045 ft 467 kts 287°
2026-05-05 20:15 52.13119 -5.70180 30044 ft 467 kts 287°
2026-05-05 20:16 52.15123 -5.80264 30066 ft 468 kts 287°
2026-05-05 20:16 52.17109 -5.90274 30051 ft 467 kts 287°
2026-05-05 20:17 52.19117 -6.00352 30048 ft 467 kts 288°
2026-05-05 20:17 52.21111 -6.10410 30048 ft 466 kts 288°
2026-05-05 20:18 52.23095 -6.20475 30055 ft 465 kts 287°
2026-05-05 20:18 52.24771 -6.30654 30058 ft 464 kts 281°
2026-05-05 20:19 52.25815 -6.39250 30060 ft 464 kts 281°
2026-05-05 20:19 52.27271 -6.51298 30053 ft 465 kts 281°
2026-05-05 20:20 52.28327 -6.59968 30057 ft 465 kts 281°
2026-05-05 20:20 52.29593 -6.70345 30065 ft 465 kts 281°
2026-05-05 20:21 52.30844 -6.80661 30063 ft 466 kts 281°
2026-05-05 20:21 52.32093 -6.91047 30067 ft 466 kts 281°
2026-05-05 20:22 52.33334 -7.01447 30073 ft 465 kts 281°
2026-05-05 20:22 52.34563 -7.11835 30070 ft 465 kts 281°
2026-05-05 20:23 52.35782 -7.22217 30065 ft 465 kts 281°
2026-05-05 20:23 52.36991 -7.32598 30064 ft 464 kts 281°
2026-05-05 20:24 52.38183 -7.42921 30063 ft 464 kts 281°
2026-05-05 20:24 52.39374 -7.53316 30055 ft 464 kts 281°
2026-05-05 20:25 52.40554 -7.63702 30064 ft 464 kts 281°
2026-05-05 20:25 52.41726 -7.74099 30060 ft 464 kts 281°
2026-05-05 20:26 52.42891 -7.84520 30064 ft 465 kts 281°
2026-05-05 20:26 52.44047 -7.94955 30067 ft 465 kts 281°
2026-05-05 20:27 52.45193 -8.05384 30067 ft 465 kts 281°
2026-05-05 20:27 52.46329 -8.15814 30072 ft 465 kts 281°
2026-05-05 20:28 52.47450 -8.26188 30075 ft 465 kts 280°
2026-05-05 20:28 52.48568 -8.36621 30087 ft 464 kts 280°
2026-05-05 20:29 52.49675 -8.47056 30086 ft 463 kts 280°
2026-05-05 20:29 52.50770 -8.57465 30086 ft 462 kts 280°
2026-05-05 20:30 52.51854 -8.67860 30091 ft 462 kts 280°
2026-05-05 20:30 52.52929 -8.78254 30096 ft 462 kts 280°
2026-05-05 20:31 52.53989 -8.88607 30101 ft 462 kts 280°
2026-05-05 20:31 52.55046 -8.99019 30100 ft 462 kts 279°
2026-05-05 20:32 52.56095 -9.09444 30103 ft 462 kts 279°
2026-05-05 20:32 52.57135 -9.19880 30106 ft 463 kts 279°
2026-05-05 20:33 52.58166 -9.30327 30102 ft 463 kts 279°
2026-05-05 20:33 52.59189 -9.40786 30098 ft 463 kts 279°
2026-05-05 20:34 52.60203 -9.51247 30099 ft 463 kts 279°
2026-05-05 20:34 52.61208 -9.61722 30088 ft 463 kts 279°
2026-05-05 20:35 52.62204 -9.72197 30119 ft 463 kts 279°
2026-05-05 20:35 52.63188 -9.82657 30107 ft 462 kts 279°
2026-05-05 20:36 52.64152 -9.93002 30098 ft 461 kts 278°
2026-05-05 20:36 52.65115 -10.03437 30104 ft 460 kts 278°
2026-05-05 20:37 52.66067 -10.13864 30110 ft 460 kts 278°
2026-05-05 20:37 52.67010 -10.24287 30110 ft 460 kts 278°
2026-05-05 20:38 52.67943 -10.34704 30110 ft 460 kts 278°
2026-05-05 20:38 52.68869 -10.45155 30110 ft 460 kts 278°
2026-05-05 20:39 52.69785 -10.55606 30115 ft 461 kts 278°
2026-05-05 20:39 52.70693 -10.66067 30119 ft 461 kts 278°
2026-05-05 20:40 52.71593 -10.76551 30121 ft 461 kts 278°
2026-05-05 20:40 52.72483 -10.87030 30121 ft 461 kts 278°
2026-05-05 20:41 52.73358 -10.97443 30122 ft 461 kts 277°
2026-05-05 20:41 52.74230 -11.07930 30140 ft 461 kts 277°
2026-05-05 20:42 52.75092 -11.18413 30132 ft 461 kts 277°
2026-05-05 20:42 52.75943 -11.28885 30130 ft 460 kts 277°
2026-05-05 20:43 52.76785 -11.39357 30132 ft 459 kts 277°
2026-05-05 20:43 52.77615 -11.49811 30138 ft 459 kts 277°
2026-05-05 20:44 52.78436 -11.60264 30143 ft 459 kts 277°
2026-05-05 20:44 52.79249 -11.70724 30132 ft 459 kts 277°
2026-05-05 20:45 52.80451 -11.86434 30145 ft 460 kts 277°
2026-05-05 20:45 52.81243 -11.96950 30148 ft 460 kts 277°
2026-05-05 20:46 52.82026 -12.07455 30148 ft 460 kts 276°
2026-05-05 20:46 52.82799 -12.17969 30147 ft 461 kts 276°
2026-05-05 20:47 52.83558 -12.28418 30150 ft 461 kts 276°
2026-05-05 20:47 52.84313 -12.38941 30149 ft 461 kts 276°
2026-05-05 20:48 52.85059 -12.49465 30156 ft 460 kts 276°
2026-05-05 20:48 52.85795 -12.59998 30155 ft 460 kts 276°
2026-05-05 20:49 52.86522 -12.70533 30154 ft 460 kts 276°
2026-05-05 20:49 52.87235 -12.80996 30156 ft 460 kts 276°
2026-05-05 20:50 52.87942 -12.91521 30155 ft 460 kts 276°
2026-05-05 20:50 52.88640 -13.02047 30156 ft 460 kts 276°
2026-05-05 20:51 52.89329 -13.12578 30164 ft 460 kts 275°
2026-05-05 20:51 52.90008 -13.23111 30164 ft 460 kts 275°
2026-05-05 20:52 52.90679 -13.33650 30160 ft 460 kts 275°
2026-05-05 20:52 52.91339 -13.44192 30160 ft 460 kts 275°
2026-05-05 20:53 52.91991 -13.54741 30162 ft 460 kts 275°
2026-05-05 20:53 52.92634 -13.65296 30164 ft 460 kts 275°
2026-05-05 20:54 52.93268 -13.75866 30168 ft 460 kts 275°
2026-05-05 20:54 52.93888 -13.86367 30175 ft 461 kts 275°
2026-05-05 20:55 52.94503 -13.96942 30171 ft 461 kts 275°
2026-05-05 20:55 52.95110 -14.07534 30171 ft 461 kts 275°
2026-05-05 20:56 52.95707 -14.18128 30172 ft 461 kts 275°
2026-05-05 20:56 52.96294 -14.28713 30173 ft 461 kts 274°
2026-05-05 20:57 52.96871 -14.39298 30173 ft 461 kts 274°
2026-05-05 20:57 52.97439 -14.49879 30171 ft 460 kts 274°
2026-05-05 20:58 52.97994 -14.60396 30175 ft 460 kts 274°
2026-05-05 20:58 52.98543 -14.70982 30174 ft 460 kts 274°
2026-05-05 20:59 52.99083 -14.81568 30177 ft 460 kts 274°
2026-05-05 20:59 52.99614 -14.92142 30182 ft 459 kts 274°
2026-05-05 21:00 53.00682 -15.02594 30180 ft 460 kts 284°
2026-05-05 21:00 53.02773 -15.12641 30183 ft 461 kts 289°
2026-05-05 21:01 53.05046 -15.22599 30180 ft 461 kts 289°
2026-05-05 21:01 53.07279 -15.32512 30180 ft 461 kts 289°
2026-05-05 21:02 53.09508 -15.42527 30179 ft 461 kts 289°
2026-05-05 21:02 53.11725 -15.52558 30187 ft 461 kts 289°
2026-05-05 21:03 53.13927 -15.62581 30185 ft 461 kts 288°
2026-05-05 21:03 53.16130 -15.72650 30185 ft 461 kts 288°
2026-05-05 21:04 53.17948 -15.80999 30185 ft 461 kts 288°
2026-05-05 21:04 53.20487 -15.92710 30182 ft 462 kts 288°
2026-05-05 21:05 53.22664 -16.02809 30188 ft 463 kts 288°
2026-05-05 21:05 53.24486 -16.11294 30185 ft 463 kts 288°
2026-05-05 21:06 53.26637 -16.21364 30185 ft 464 kts 288°
2026-05-05 21:06 53.28799 -16.31531 30185 ft 464 kts 288°
2026-05-05 21:07 53.30950 -16.41701 30185 ft 464 kts 288°
2026-05-05 21:07 53.33093 -16.51879 30188 ft 464 kts 288°
2026-05-05 21:08 53.35228 -16.62080 30187 ft 464 kts 288°
2026-05-05 21:08 53.37356 -16.72290 30189 ft 465 kts 288°
2026-05-05 21:09 53.39480 -16.82538 30196 ft 466 kts 288°
2026-05-05 21:09 53.41602 -16.92826 30195 ft 468 kts 288°
2026-05-05 21:10 53.43707 -17.03087 30193 ft 468 kts 288°
2026-05-05 21:10 53.45818 -17.13431 30194 ft 469 kts 288°
2026-05-05 21:11 53.47924 -17.23801 30190 ft 469 kts 288°
2026-05-05 21:11 53.50019 -17.34182 30189 ft 469 kts 289°
2026-05-05 21:12 53.52107 -17.44570 30197 ft 470 kts 290°
2026-05-05 21:12 53.54181 -17.54943 30194 ft 471 kts 289°
2026-05-05 21:13 53.56262 -17.65409 30191 ft 472 kts 289°
2026-05-05 21:13 53.58338 -17.75913 30195 ft 473 kts 289°
2026-05-05 21:14 53.60403 -17.86418 30197 ft 473 kts 289°
2026-05-05 21:14 53.62459 -17.96935 30187 ft 473 kts 290°
2026-05-05 21:15 53.64509 -18.07471 30202 ft 473 kts 290°
2026-05-05 21:15 53.66550 -18.18018 30196 ft 473 kts 290°
2026-05-05 21:16 53.68585 -18.28597 30198 ft 473 kts 290°
2026-05-05 21:16 53.70590 -18.39080 30198 ft 472 kts 290°
2026-05-05 21:17 53.72599 -18.49638 30198 ft 472 kts 290°
2026-05-05 21:17 53.74597 -18.60200 30192 ft 472 kts 290°
2026-05-05 21:18 53.76585 -18.70769 30204 ft 472 kts 290°
2026-05-05 21:18 53.78568 -18.81368 30195 ft 472 kts 290°
2026-05-05 21:19 53.80539 -18.91963 30203 ft 472 kts 290°
2026-05-05 21:19 53.82489 -19.02505 30201 ft 472 kts 290°
2026-05-05 21:20 53.84442 -19.13127 30203 ft 472 kts 290°
2026-05-05 21:20 53.86381 -19.23732 30194 ft 472 kts 291°
2026-05-05 21:21 53.88316 -19.34374 30207 ft 472 kts 291°
2026-05-05 21:21 53.90244 -19.45037 30204 ft 473 kts 291°
2026-05-05 21:22 53.92161 -19.55707 30194 ft 473 kts 291°
2026-05-05 21:22 53.94070 -19.66395 30201 ft 473 kts 291°
2026-05-05 21:23 53.95960 -19.77037 30211 ft 474 kts 291°
2026-05-05 21:23 53.97856 -19.87769 30195 ft 474 kts 291°
2026-05-05 21:24 53.99669 -19.98564 30208 ft 477 kts 287°
2026-05-05 21:24 54.00500 -20.09835 30221 ft 484 kts 278°
2026-05-05 21:25 54.00902 -20.21266 30205 ft 485 kts 278°
2026-05-05 21:25 54.01313 -20.32641 30217 ft 485 kts 278°
2026-05-05 21:26 54.01742 -20.44085 30176 ft 485 kts 279°
2026-05-05 21:26 54.02171 -20.55524 30202 ft 484 kts 278°
2026-05-05 21:27 54.02590 -20.66950 30212 ft 484 kts 278°
2026-05-05 21:27 54.02996 -20.78364 30211 ft 483 kts 278°
2026-05-05 21:28 54.03390 -20.89763 30210 ft 482 kts 278°
2026-05-05 21:28 54.03773 -21.01155 30179 ft 482 kts 278°
2026-05-05 21:29 54.04144 -21.12527 30206 ft 481 kts 278°
2026-05-05 21:29 54.04503 -21.23825 30210 ft 481 kts 278°
2026-05-05 21:30 54.04852 -21.35188 30214 ft 481 kts 278°
2026-05-05 21:30 54.05192 -21.46552 30215 ft 481 kts 278°
2026-05-05 21:31 54.05523 -21.57965 30328 ft 485 kts 278°
2026-05-05 21:31 54.05848 -21.69511 30550 ft 490 kts 277°
2026-05-05 21:32 54.06004 -21.75301 30902 ft 489 kts 277°
2026-05-05 21:32 54.06157 -21.81079 31317 ft 486 kts 277°
2026-05-05 21:32 54.06305 -21.86812 31713 ft 483 kts 277°
2026-05-05 21:32 54.06450 -21.92514 32101 ft 482 kts 277°
2026-05-05 21:33 54.06739 -22.03921 32215 ft 486 kts 277°
2026-05-05 21:33 54.07014 -22.15377 32210 ft 481 kts 277°
2026-05-05 21:34 54.07276 -22.26741 32220 ft 480 kts 277°
2026-05-05 21:34 54.07529 -22.38088 32221 ft 479 kts 277°
2026-05-05 21:35 54.07772 -22.49447 32225 ft 480 kts 277°
2026-05-05 21:35 54.08003 -22.60807 32222 ft 480 kts 277°
2026-05-05 21:36 54.08224 -22.72186 32228 ft 481 kts 277°
2026-05-05 21:36 54.08433 -22.83573 32217 ft 481 kts 277°
2026-05-05 21:37 54.08633 -22.94972 32233 ft 482 kts 276°
2026-05-05 21:37 54.08821 -23.06380 32233 ft 482 kts 276°
2026-05-05 21:38 54.08998 -23.17706 32225 ft 481 kts 276°
2026-05-05 21:38 54.09164 -23.29115 32220 ft 481 kts 276°
2026-05-05 21:39 54.09321 -23.40525 32221 ft 480 kts 276°
2026-05-05 21:39 54.09466 -23.51896 32226 ft 480 kts 276°
2026-05-05 21:40 54.09599 -23.63189 32226 ft 479 kts 276°
2026-05-05 21:40 54.09723 -23.74532 32228 ft 479 kts 276°
2026-05-05 21:41 54.09835 -23.85879 32229 ft 479 kts 275°
2026-05-05 21:41 54.09938 -23.97232 32225 ft 478 kts 275°
2026-05-05 21:42 54.10029 -24.08561 32229 ft 478 kts 275°
2026-05-05 21:42 54.10110 -24.19893 32232 ft 478 kts 275°
2026-05-05 21:43 54.10180 -24.31218 32230 ft 478 kts 275°
2026-05-05 21:43 54.10239 -24.42469 32233 ft 477 kts 275°
2026-05-05 21:44 54.10287 -24.53788 32224 ft 477 kts 274°
2026-05-05 21:44 54.10325 -24.65090 32230 ft 476 kts 274°
2026-05-05 21:45 54.10352 -24.76388 32235 ft 476 kts 274°
2026-05-05 21:45 54.10370 -24.87677 32238 ft 476 kts 274°
2026-05-05 21:46 54.10376 -24.98882 32236 ft 476 kts 274°
2026-05-05 21:46 54.10372 -25.10166 32222 ft 476 kts 274°
2026-05-05 21:47 54.10357 -25.21436 32233 ft 476 kts 274°
2026-05-05 21:47 54.10332 -25.32698 32246 ft 475 kts 273°
2026-05-05 21:48 54.10296 -25.43990 32237 ft 476 kts 273°
2026-05-05 21:48 54.10250 -25.55258 32238 ft 476 kts 273°
2026-05-05 21:49 54.10193 -25.66538 32217 ft 476 kts 273°
2026-05-05 21:49 54.10126 -25.77807 32238 ft 475 kts 272°
2026-05-05 21:50 54.10048 -25.88997 32247 ft 475 kts 272°
2026-05-05 21:50 54.09960 -26.00259 32245 ft 475 kts 272°
2026-05-05 21:51 54.09861 -26.11521 32244 ft 475 kts 272°
2026-05-05 21:51 54.09752 -26.22782 32245 ft 475 kts 272°
2026-05-05 21:52 54.09568 -26.39676 32245 ft 475 kts 271°
2026-05-05 21:53 54.09432 -26.50919 32252 ft 475 kts 271°
2026-05-05 21:53 54.09287 -26.62091 32250 ft 475 kts 271°
2026-05-05 21:54 54.09131 -26.73347 32249 ft 475 kts 271°
2026-05-05 21:54 54.08965 -26.84592 32233 ft 475 kts 271°
2026-05-05 21:55 54.08817 -26.94008 32248 ft 475 kts 270°
2026-05-05 21:55 54.08632 -27.05170 32251 ft 475 kts 270°
2026-05-05 21:56 54.08435 -27.16425 32251 ft 475 kts 270°
2026-05-05 21:56 54.08228 -27.27684 32254 ft 475 kts 270°
2026-05-05 21:57 54.08010 -27.38934 32253 ft 475 kts 270°
2026-05-05 21:57 54.07782 -27.50204 32246 ft 476 kts 270°
2026-05-05 21:58 54.07542 -27.61480 32256 ft 477 kts 270°
2026-05-05 21:58 54.07292 -27.72773 32254 ft 478 kts 269°
2026-05-05 21:59 54.07030 -27.84097 32253 ft 478 kts 269°
2026-05-05 21:59 54.06760 -27.95346 32252 ft 479 kts 269°
2026-05-05 22:00 54.06477 -28.06674 32259 ft 479 kts 269°
2026-05-05 22:00 54.06183 -28.18014 32253 ft 479 kts 269°
2026-05-05 22:01 54.05878 -28.29343 32256 ft 479 kts 269°
2026-05-05 22:01 54.05563 -28.40665 32253 ft 479 kts 269°
2026-05-05 22:02 54.05238 -28.51988 32256 ft 479 kts 269°
2026-05-05 22:02 54.04902 -28.63301 32243 ft 479 kts 268°
2026-05-05 22:03 54.04558 -28.74544 32252 ft 479 kts 268°
2026-05-05 22:03 54.04200 -28.85877 32249 ft 480 kts 268°
2026-05-05 22:04 54.03831 -28.97224 32252 ft 480 kts 268°
2026-05-05 22:04 54.03450 -29.08583 32248 ft 480 kts 268°
2026-05-05 22:05 54.03060 -29.19940 32240 ft 481 kts 267°
2026-05-05 22:05 54.02658 -29.31303 32247 ft 481 kts 267°
2026-05-05 22:06 54.02247 -29.42598 32244 ft 482 kts 266°
2026-05-05 22:06 54.01824 -29.53965 32236 ft 482 kts 266°
2026-05-05 22:07 54.01388 -29.65371 32241 ft 482 kts 266°
2026-05-05 22:07 54.00943 -29.76768 32229 ft 483 kts 266°
2026-05-05 22:08 54.00488 -29.88138 32239 ft 482 kts 265°
2026-05-05 22:08 54.00054 -29.99513 32233 ft 482 kts 268°
2026-05-05 22:09 54.00364 -30.10887 32235 ft 481 kts 274°
2026-05-05 22:09 54.00865 -30.22162 32229 ft 481 kts 274°
2026-05-05 22:10 54.01339 -30.33501 32235 ft 481 kts 273°
2026-05-05 22:10 54.01783 -30.44891 32233 ft 483 kts 272°
2026-05-05 22:11 54.02208 -30.56311 32227 ft 485 kts 272°
2026-05-05 22:11 54.02623 -30.67772 32224 ft 486 kts 272°
2026-05-05 22:12 54.03031 -30.79291 32221 ft 488 kts 272°
2026-05-05 22:12 54.03428 -30.90814 32215 ft 488 kts 272°
2026-05-05 22:13 54.03816 -31.02360 32209 ft 489 kts 271°
2026-05-05 22:13 54.04192 -31.13930 32209 ft 490 kts 271°
2026-05-05 22:14 54.04558 -31.25517 32204 ft 491 kts 271°
2026-05-05 22:14 54.04914 -31.37121 32205 ft 491 kts 271°
2026-05-05 22:15 54.05256 -31.48670 32192 ft 492 kts 271°
2026-05-05 22:15 54.05590 -31.60305 32194 ft 492 kts 271°
2026-05-05 22:16 54.05914 -31.71948 32198 ft 493 kts 270°
2026-05-05 22:16 54.06226 -31.83626 32188 ft 493 kts 270°
2026-05-05 22:17 54.06527 -31.95311 32189 ft 494 kts 270°
2026-05-05 22:17 54.06817 -32.06997 32179 ft 494 kts 269°
2026-05-05 22:18 54.07095 -32.18675 32191 ft 494 kts 269°
2026-05-05 22:18 54.07361 -32.30301 32179 ft 495 kts 268°
2026-05-05 22:19 54.07618 -32.42034 32175 ft 496 kts 268°
2026-05-05 22:19 54.07863 -32.53810 32169 ft 497 kts 268°
2026-05-05 22:20 54.08099 -32.65604 32166 ft 498 kts 268°
2026-05-05 22:20 54.08322 -32.77401 32161 ft 499 kts 268°
2026-05-05 22:21 54.08535 -32.89227 32161 ft 499 kts 268°
2026-05-05 22:21 54.08737 -33.01052 32159 ft 499 kts 267°
2026-05-05 22:22 54.08925 -33.12804 32150 ft 499 kts 267°
2026-05-05 22:22 54.09102 -33.24607 32153 ft 498 kts 267°
2026-05-05 22:23 54.09268 -33.36399 32143 ft 498 kts 267°
2026-05-05 22:23 54.09423 -33.48200 32145 ft 497 kts 267°
2026-05-05 22:24 54.09565 -33.59979 32157 ft 497 kts 267°
2026-05-05 22:24 54.09696 -33.71753 32143 ft 497 kts 266°
2026-05-05 22:25 54.09816 -33.83536 32144 ft 497 kts 266°
2026-05-05 22:25 54.09923 -33.95233 32145 ft 496 kts 266°
2026-05-05 22:26 54.10019 -34.07005 32160 ft 497 kts 266°
2026-05-05 22:26 54.10104 -34.18771 32143 ft 496 kts 266°
2026-05-05 22:27 54.10178 -34.30557 32143 ft 495 kts 266°
2026-05-05 22:27 54.10240 -34.42223 32140 ft 494 kts 266°
2026-05-05 22:28 54.10289 -34.53708 32140 ft 494 kts 266°
2026-05-05 22:28 54.10328 -34.65406 32142 ft 493 kts 266°
2026-05-05 22:29 54.10356 -34.77105 32143 ft 493 kts 266°
2026-05-05 22:29 54.10372 -34.88797 32150 ft 493 kts 266°
2026-05-05 22:30 54.10378 -35.00487 32155 ft 493 kts 266°
2026-05-05 22:30 54.10372 -35.12101 32144 ft 493 kts 266°
2026-05-05 22:31 54.10354 -35.23783 32153 ft 492 kts 265°
2026-05-05 22:31 54.10326 -35.35455 32147 ft 493 kts 265°
2026-05-05 22:32 54.10286 -35.47132 32182 ft 492 kts 265°
2026-05-05 22:32 54.10234 -35.58812 32147 ft 493 kts 265°
2026-05-05 22:33 54.10172 -35.70477 32145 ft 492 kts 265°
2026-05-05 22:33 54.10098 -35.82121 32145 ft 491 kts 265°
2026-05-05 22:34 54.10014 -35.93768 32154 ft 492 kts 265°
2026-05-05 22:34 54.09917 -36.05426 32147 ft 492 kts 265°
2026-05-05 22:35 54.09809 -36.17094 32167 ft 493 kts 265°
2026-05-05 22:35 54.09691 -36.28699 32156 ft 493 kts 265°
2026-05-05 22:36 54.09561 -36.40367 32150 ft 492 kts 265°
2026-05-05 22:36 54.09420 -36.52023 32152 ft 491 kts 265°
2026-05-05 22:37 54.09268 -36.63656 32150 ft 491 kts 264°
2026-05-05 22:37 54.09105 -36.75258 32153 ft 490 kts 264°
2026-05-05 22:38 54.08930 -36.86876 32157 ft 491 kts 264°
2026-05-05 22:38 54.08745 -36.98488 32150 ft 490 kts 264°
2026-05-05 22:39 54.08548 -37.10089 32150 ft 490 kts 264°
2026-05-05 22:39 54.08341 -37.21667 32151 ft 489 kts 264°
2026-05-05 22:40 54.08160 -37.31300 32151 ft 489 kts 264°
2026-05-05 22:40 54.07892 -37.44800 32178 ft 494 kts 264°
2026-05-05 22:41 54.07685 -37.54673 32165 ft 500 kts 264°
2026-05-05 22:41 54.07427 -37.66588 32165 ft 506 kts 264°
2026-05-05 22:42 54.07112 -37.80550 32155 ft 509 kts 264°
2026-05-05 22:42 54.06876 -37.90566 32150 ft 510 kts 264°
2026-05-05 22:43 54.06580 -38.02625 32146 ft 510 kts 264°
2026-05-05 22:43 54.06271 -38.14699 32151 ft 509 kts 264°
2026-05-05 22:44 54.05952 -38.26703 32140 ft 507 kts 263°
2026-05-05 22:44 54.05622 -38.38656 32147 ft 505 kts 263°
2026-05-05 22:45 54.05281 -38.50569 32138 ft 503 kts 263°
2026-05-05 22:45 54.04931 -38.62386 32163 ft 502 kts 263°
2026-05-05 22:46 54.04566 -38.74275 32153 ft 504 kts 263°
2026-05-05 22:46 54.04189 -38.86197 32149 ft 505 kts 263°
2026-05-05 22:47 54.03800 -38.98150 32132 ft 506 kts 263°
2026-05-05 22:47 54.03399 -39.10088 32144 ft 506 kts 263°
2026-05-05 22:48 54.02986 -39.22062 32124 ft 507 kts 263°
2026-05-05 22:48 54.02560 -39.34028 32149 ft 507 kts 263°
2026-05-05 22:49 54.02122 -39.45996 32132 ft 507 kts 263°
2026-05-05 22:49 54.01673 -39.57960 32136 ft 507 kts 263°
2026-05-05 22:50 54.01214 -39.69861 32127 ft 507 kts 263°
2026-05-05 22:50 54.00741 -39.81832 32122 ft 507 kts 262°
2026-05-05 22:51 54.00257 -39.93802 32120 ft 507 kts 262°
2026-05-05 22:51 53.99727 -40.05760 32123 ft 507 kts 262°
2026-05-05 22:52 53.99037 -40.17657 32115 ft 505 kts 261°
2026-05-05 22:52 53.98306 -40.29526 32116 ft 504 kts 261°
2026-05-05 22:53 53.97588 -40.41291 32115 ft 503 kts 261°
2026-05-05 22:53 53.96870 -40.53111 32120 ft 503 kts 261°
2026-05-05 22:54 53.96143 -40.64956 32113 ft 504 kts 261°
2026-05-05 22:54 53.95403 -40.76799 32101 ft 505 kts 261°
2026-05-05 22:55 53.94648 -40.88680 32106 ft 505 kts 260°
2026-05-05 22:55 53.93887 -41.00473 32101 ft 506 kts 260°
2026-05-05 22:56 53.93109 -41.12322 32098 ft 506 kts 260°
2026-05-05 22:56 53.92318 -41.24212 32113 ft 506 kts 261°
2026-05-05 22:57 53.91518 -41.36041 32085 ft 503 kts 261°
2026-05-05 22:57 53.90712 -41.47795 32084 ft 501 kts 261°
2026-05-05 22:58 53.89900 -41.59465 32080 ft 500 kts 260°
2026-05-05 22:58 53.89069 -41.71220 32074 ft 499 kts 260°
2026-05-05 22:59 53.88239 -41.82818 32074 ft 498 kts 260°
2026-05-05 22:59 53.87392 -41.94470 32081 ft 498 kts 261°
2026-05-05 23:00 53.86104 -42.11915 32069 ft 497 kts 260°
2026-05-05 23:00 53.85231 -42.23536 32059 ft 497 kts 260°
2026-05-05 23:01 53.84350 -42.35121 32059 ft 497 kts 260°
2026-05-05 23:01 53.83454 -42.46732 32066 ft 497 kts 260°
2026-05-05 23:02 53.82548 -42.58330 32034 ft 496 kts 260°
2026-05-05 23:02 53.81633 -42.69904 32046 ft 495 kts 260°
2026-05-05 23:03 53.80710 -42.81443 32048 ft 494 kts 260°
2026-05-05 23:03 53.79775 -42.92966 32045 ft 494 kts 260°
2026-05-05 23:04 53.78830 -43.04477 32030 ft 494 kts 260°
2026-05-05 23:04 53.77882 -43.15891 32026 ft 493 kts 260°
2026-05-05 23:05 53.76920 -43.27346 32035 ft 491 kts 260°
2026-05-05 23:05 53.75947 -43.38785 32034 ft 491 kts 260°
2026-05-05 23:06 53.74964 -43.50201 32021 ft 491 kts 260°
2026-05-05 23:06 53.73972 -43.61608 32021 ft 491 kts 260°
2026-05-05 23:07 53.72966 -43.73037 32023 ft 490 kts 260°
2026-05-05 23:07 53.71959 -43.84349 32012 ft 490 kts 260°
2026-05-05 23:08 53.70936 -43.95716 32007 ft 489 kts 259°
2026-05-05 23:08 53.69905 -44.07045 31999 ft 488 kts 259°
2026-05-05 23:09 53.68865 -44.18357 31998 ft 488 kts 259°
2026-05-05 23:09 53.67814 -44.29660 32014 ft 488 kts 259°
2026-05-05 23:10 53.66750 -44.40982 32003 ft 488 kts 259°
2026-05-05 23:10 53.65677 -44.52286 31992 ft 488 kts 259°
2026-05-05 23:11 53.64593 -44.63593 31992 ft 488 kts 259°
2026-05-05 23:11 53.63505 -44.74814 31978 ft 488 kts 259°
2026-05-05 23:12 53.62401 -44.86093 31981 ft 488 kts 259°
2026-05-05 23:12 53.61285 -44.97374 31977 ft 487 kts 259°
2026-05-05 23:13 53.60162 -45.08618 31969 ft 486 kts 259°
2026-05-05 23:13 53.59029 -45.19853 31976 ft 486 kts 259°
2026-05-05 23:14 53.57884 -45.31088 31973 ft 487 kts 259°
2026-05-05 23:14 53.56738 -45.42226 31968 ft 487 kts 259°
2026-05-05 23:15 53.55571 -45.53468 31959 ft 487 kts 259°
2026-05-05 23:15 53.54396 -45.64670 31954 ft 487 kts 259°
2026-05-05 23:16 53.53210 -45.75881 31947 ft 486 kts 259°
2026-05-05 23:16 53.52015 -45.87072 31951 ft 486 kts 258°
2026-05-05 23:17 53.50811 -45.98233 31939 ft 485 kts 258°
2026-05-05 23:17 53.49599 -46.09376 31953 ft 485 kts 258°
2026-05-05 23:18 53.48374 -46.20522 31944 ft 485 kts 259°
2026-05-05 23:18 53.47140 -46.31658 31933 ft 485 kts 259°
2026-05-05 23:19 53.45904 -46.42716 31934 ft 485 kts 259°
2026-05-05 23:19 53.44651 -46.53827 31933 ft 484 kts 258°
2026-05-05 23:20 53.43387 -46.64940 31925 ft 484 kts 258°
2026-05-05 23:20 53.42115 -46.76019 31926 ft 484 kts 258°
2026-05-05 23:21 53.40830 -46.87118 31921 ft 484 kts 258°
2026-05-05 23:21 53.39538 -46.98187 31921 ft 484 kts 258°
2026-05-05 23:22 53.38231 -47.09286 31918 ft 486 kts 258°
2026-05-05 23:22 53.36912 -47.20391 31914 ft 487 kts 258°
2026-05-05 23:23 53.35581 -47.31507 31902 ft 487 kts 258°
2026-05-05 23:23 53.34240 -47.42605 31907 ft 486 kts 258°
2026-05-05 23:24 53.32899 -47.53621 31904 ft 485 kts 258°
2026-05-05 23:24 53.31541 -47.64682 31900 ft 485 kts 258°
2026-05-05 23:25 53.30165 -47.75802 31896 ft 484 kts 258°
2026-05-05 23:25 53.29022 -47.84963 31893 ft 484 kts 258°
2026-05-05 23:26 53.27640 -47.95961 31901 ft 483 kts 258°
2026-05-05 23:26 53.26249 -48.06950 31894 ft 483 kts 258°
2026-05-05 23:27 53.24848 -48.17930 31887 ft 483 kts 258°
2026-05-05 23:27 53.23437 -48.28898 31885 ft 483 kts 258°
2026-05-05 23:28 53.22016 -48.39862 31884 ft 482 kts 258°
2026-05-05 23:28 53.20587 -48.50800 31866 ft 482 kts 258°
2026-05-05 23:29 53.19152 -48.61702 31875 ft 481 kts 258°
2026-05-05 23:29 53.17718 -48.72512 31876 ft 480 kts 258°
2026-05-05 23:30 53.16269 -48.83360 31884 ft 479 kts 258°
2026-05-05 23:30 53.14810 -48.94199 31872 ft 479 kts 258°
2026-05-05 23:31 53.13342 -49.05026 31874 ft 479 kts 258°
2026-05-05 23:31 53.11865 -49.15831 31868 ft 477 kts 259°
2026-05-05 23:32 53.10386 -49.26578 31861 ft 476 kts 259°
2026-05-05 23:32 53.08900 -49.37306 31871 ft 475 kts 259°
2026-05-05 23:33 53.07407 -49.48002 31877 ft 474 kts 258°
2026-05-05 23:33 53.05907 -49.58671 31866 ft 474 kts 258°
2026-05-05 23:34 53.04407 -49.69270 31850 ft 473 kts 259°
2026-05-05 23:34 53.02891 -49.79900 31852 ft 472 kts 259°
2026-05-05 23:35 53.01372 -49.90500 31852 ft 471 kts 259°
2026-05-05 23:35 52.99749 -50.01037 31853 ft 472 kts 255°
2026-05-05 23:36 52.97360 -50.11210 31855 ft 473 kts 251°
2026-05-05 23:36 52.94884 -50.21323 31831 ft 473 kts 251°
2026-05-05 23:37 52.92440 -50.31367 31846 ft 471 kts 252°
2026-05-05 23:37 52.89993 -50.41435 31853 ft 471 kts 252°
2026-05-05 23:38 52.87543 -50.51488 31854 ft 470 kts 252°
2026-05-05 23:38 52.85085 -50.61521 31854 ft 470 kts 251°
2026-05-05 23:39 52.82621 -50.71526 31830 ft 469 kts 252°
2026-05-05 23:39 52.80165 -50.81452 31849 ft 468 kts 252°
2026-05-05 23:40 52.77696 -50.91387 31856 ft 466 kts 252°
2026-05-05 23:40 52.75226 -51.01286 31853 ft 465 kts 252°
2026-05-05 23:41 52.72750 -51.11164 31857 ft 465 kts 252°
2026-05-05 23:41 52.70271 -51.21007 31837 ft 464 kts 252°
2026-05-05 23:42 52.67809 -51.30741 31852 ft 462 kts 252°
2026-05-05 23:42 52.65327 -51.40511 31855 ft 461 kts 252°
2026-05-05 23:43 52.62843 -51.50250 31859 ft 461 kts 252°
2026-05-05 23:43 52.60355 -51.59960 31857 ft 461 kts 252°
2026-05-05 23:44 52.57856 -51.69670 31825 ft 460 kts 252°
2026-05-05 23:44 52.55359 -51.79329 31842 ft 459 kts 252°
2026-05-05 23:45 52.52856 -51.88971 31852 ft 458 kts 252°
2026-05-05 23:45 52.50350 -51.98583 31854 ft 458 kts 252°
2026-05-05 23:46 52.47837 -52.08187 31854 ft 457 kts 252°
2026-05-05 23:46 52.45317 -52.17772 31853 ft 458 kts 252°
2026-05-05 23:47 52.42791 -52.27341 31857 ft 458 kts 252°
2026-05-05 23:47 52.40271 -52.36846 31856 ft 458 kts 252°
2026-05-05 23:48 52.37723 -52.46416 31859 ft 458 kts 252°
2026-05-05 23:48 52.35171 -52.55964 31860 ft 458 kts 251°
2026-05-05 23:49 52.32605 -52.65517 31849 ft 458 kts 252°
2026-05-05 23:49 52.30039 -52.75036 31860 ft 457 kts 252°
2026-05-05 23:50 52.27465 -52.84549 31872 ft 457 kts 252°
2026-05-05 23:50 52.24884 -52.94044 31876 ft 457 kts 252°
2026-05-05 23:51 52.22298 -53.03517 31867 ft 456 kts 252°
2026-05-05 23:51 52.19725 -53.12902 31847 ft 454 kts 252°
2026-05-05 23:52 52.17145 -53.22276 31865 ft 453 kts 252°
2026-05-05 23:52 52.14564 -53.31619 31873 ft 452 kts 252°
2026-05-05 23:53 52.11983 -53.40925 31871 ft 451 kts 252°
2026-05-05 23:53 52.09396 -53.50219 31871 ft 451 kts 252°
2026-05-05 23:54 52.06800 -53.59503 31866 ft 450 kts 252°
2026-05-05 23:54 52.04206 -53.68747 31886 ft 450 kts 252°
2026-05-05 23:55 52.01605 -53.77979 31868 ft 450 kts 252°
2026-05-05 23:55 51.98990 -53.87221 31863 ft 450 kts 252°
2026-05-05 23:56 51.96374 -53.96434 31879 ft 450 kts 252°
2026-05-05 23:56 51.93746 -54.05652 31853 ft 450 kts 251°
2026-05-05 23:57 51.91114 -54.14845 31875 ft 450 kts 251°
2026-05-05 23:57 51.88488 -54.23984 31871 ft 450 kts 251°
2026-05-05 23:58 51.85837 -54.33180 31872 ft 451 kts 251°
2026-05-05 23:58 51.83177 -54.42369 31871 ft 451 kts 251°
2026-05-05 23:59 51.80503 -54.51561 31851 ft 451 kts 250°
2026-05-05 23:59 51.77361 -54.60411 31886 ft 456 kts 244°
2026-05-06 00:00 51.74025 -54.69113 31874 ft 456 kts 244°
2026-05-06 00:00 51.70693 -54.77834 31873 ft 456 kts 244°
2026-05-06 00:01 51.67370 -54.86542 31879 ft 456 kts 244°
2026-05-06 00:01 51.64043 -54.95240 31864 ft 456 kts 244°
2026-05-06 00:02 51.60713 -55.03918 31870 ft 455 kts 244°
2026-05-06 00:02 51.57398 -55.12523 31870 ft 455 kts 244°
2026-05-06 00:03 51.54056 -55.21172 31861 ft 455 kts 244°
2026-05-06 00:03 51.50706 -55.29808 31823 ft 455 kts 244°
2026-05-06 00:04 51.47348 -55.38440 31850 ft 456 kts 244°
2026-05-06 00:04 51.43980 -55.47066 31851 ft 456 kts 244°
2026-05-06 00:05 51.38912 -55.59994 31832 ft 457 kts 244°
2026-05-06 00:06 51.35521 -55.68607 31805 ft 457 kts 243°
2026-05-06 00:06 51.32123 -55.77206 31827 ft 457 kts 243°
2026-05-06 00:07 51.28741 -55.85740 31826 ft 457 kts 243°
2026-05-06 00:07 51.25335 -55.94304 31828 ft 457 kts 243°
2026-05-06 00:08 51.21921 -56.02861 31827 ft 457 kts 243°
2026-05-06 00:08 51.18506 -56.11393 31818 ft 456 kts 243°
2026-05-06 00:09 51.15081 -56.19922 31833 ft 457 kts 243°
2026-05-06 00:09 51.11645 -56.28448 31827 ft 457 kts 243°
2026-05-06 00:10 51.08201 -56.36968 31813 ft 458 kts 243°
2026-05-06 00:10 51.04750 -56.45476 31811 ft 458 kts 243°
2026-05-06 00:11 51.01875 -56.52542 31839 ft 458 kts 242°
2026-05-06 00:11 50.98404 -56.61049 31824 ft 459 kts 242°
2026-05-06 00:12 50.94929 -56.69535 31816 ft 459 kts 242°
2026-05-06 00:12 50.91446 -56.78018 31809 ft 459 kts 242°